Regional Weather Roundup
Issued by NWS Wilmington, NC

Home | Current Version | Previous Version | Text Only | Print | Product List | Glossary On
Versions: 1 2 3 4 5 6 7 8 9 10 11 12 13 14 15 16 17 18 19 20 21 22 23 24 25 26 27 28 29 30 31 32 33 34 35 36 37 38 39 40 41 42 43 44 45 46 47 48 49 50
000
ASUS42 KILM 272110
RWRILM
RWRILM
REGIONAL HOURLY WEATHER ROUNDUP
NATIONAL WEATHER SERVICE WILMINGTON NC
400 PM EST TUE JAN 27 2015

NOTE: "FAIR" INDICATES FEW OR NO CLOUDS BELOW 12,000 FEET WITH NO
SIGNIFICANT WEATHER AND/OR OBSTRUCTIONS TO VISIBILITY.

...............WFO WILMINGTON COUNTY WARNING AREA...............

......COASTAL NC AND SC COUNTIES......

CITY           SKY/WX    TMP DP  RH WIND       PRES   REMARKS
WILMINGTON     CLOUDY    42  28  57 NW14      29.82R
SOUTHPORT      MOSUNNY   44  27  52 NW10      29.82R
N MYRTLE BEACH SUNNY     47  21  35 NW10G17   29.83R
MYRTLE BEACH   SUNNY     46  19  34 NW13      29.85R

......INLAND NC AND SC COUNTIES.......

CITY           SKY/WX    TMP DP  RH WIND       PRES   REMARKS
LUMBERTON      SUNNY     47  20  34 NW12      29.83R
ELIZABETHTOWN  MOSUNNY   44  24  46 NW8       29.83R
WHITEVILLE     SUNNY     45  23  41 W5        29.83R
FLORENCE       SUNNY     49  17  28 NW8       29.84R
DARLINGTON     SUNNY     48  19  32 NW15G22   29.86R

....................REST OF NORTH CAROLINA......................

.........EASTERN NC.........

CITY           SKY/WX    TMP DP  RH WIND       PRES   REMARKS
CAPE HATTERAS  CLOUDY    35  31  85 NW9G18    29.76R WCI  28
JACKSONVILLE   CLOUDY    39  27  60 NW5       29.83R
MOREHEAD CITY  CLOUDY    38  29  70 NW15      29.80R WCI  29
KENANSVILLE    PTSUNNY   41  28  58 W9        29.83R
NEW BERN       CLOUDY    40  27  59 NW13      29.82R WCI  32
ELIZABETH CITY CLOUDY    35  28  75 NW12      29.78R WCI  27

.........CENTRAL NC.........

CITY           SKY/WX    TMP DP  RH WIND       PRES   REMARKS
RALEIGH DURHAM MOSUNNY   44  12  27 W7        29.81R
ROCKY MOUNT    SUNNY     40  26  57 N8        29.82R WCI  34
ROANOKE RAPIDS NOT AVBL
FAYETTEVILLE   SUNNY     46  19  34 NW12      29.82R
HOFFMAN        SUNNY     46  13  26 N9G20     29.85R

.........WESTERN NC.........

CITY           SKY/WX    TMP DP  RH WIND       PRES   REMARKS
CHARLOTTE      MOSUNNY   47  16  29 NW7       29.86R
GREENSBORO     MOSUNNY   45   8  22 NW13      29.80R
HICKORY        NOT AVBL
BOONE          NOT AVBL
ASHEVILLE      NOT AVBL

.....................REST OF SOUTH CAROLINA.....................

.........EASTERN SC.........

CITY           SKY/WX    TMP DP  RH WIND       PRES   REMARKS
CHARLESTON     MOSUNNY   51  25  36 N13G22    29.88R
BEAUFORT MCAS  MOSUNNY   51  30  44 NW9G20    29.90R
HILTON HEAD    MOSUNNY   50  32  50 N13G20    29.90R

.........CENTRAL SC.........

CITY           SKY/WX    TMP DP  RH WIND       PRES   REMARKS
COLUMBIA       MOSUNNY   50  27  40 NW12      29.88R
ORANGEBURG     MOSUNNY   50  25  37 NW12G18   29.88R
SUMTER SHAW    MOSUNNY   49  21  32 NW10      29.86R

.........WESTERN SC.........

CITY           SKY/WX    TMP DP  RH WIND       PRES   REMARKS
GREENVILLE     NOT AVBL
ROCK HILL      SUNNY     48  21  34 NW8       29.86R
ANDERSON       PTSUNNY   51  25  36 W16G22    29.88R
CLEMSON        NOT AVBL
GREENWOOD      MOSUNNY   50  24  36 W12       29.90R


...................COASTAL AND OFFSHORE REPORTS..................

................LOCAL PIERS AND NC RESERVE................


STATION/POSITION TIME  SKY/WX   TEMP    WIND        PRES    VSBY
                                AIR SEA DIR/SP/G
                 (UTC)          (F)     (DEG/KT/KT) (MB)    (MI)
JOHNY MRCER PIER 2100            41 53  320/ 11/ 14 1009.0R
NC RESRV MASNBRO 2000            41     270/  3     1010.0S
OCEAN CREST PIER 2100            43 52  290/ 12/ 15 1008.7R
SPRINGMAID  PIER 2100            47 50  310/  8/ 12 1010.2R


................COASTAL AND OFFSHORE BUOYS................


STATION/POSITION TIME  SKY/WX   TEMP    WIND        PRES    VSBY
                                AIR SEA DIR/SP/G
                 (UTC)          (F)     (DEG/KT/KT) (MB)    (MI)
DIMNDSHOAL 41025 2100            39 69  330/ 17/ 23 1006.9R
WVE H/P(F/S)= 11/14 WND WVE H/P(F/S)=  5/ 8 SWL H/P/D(F/S/D)= 10/ 50/14

CAPE LOOKOUT     2000            37     340/ 13/ 15 1008.1R
ONSLOW BAY 41036 NOT AVBL
5 WRITEBCH 41038 2000            42 53  330/ 12/ 16 1009.0R
MASONBORO  41110 2100               53                N/A
WVE H/P(F/S)=  2/ 8 WND WVE H/P(F/S)=  2/ 8 SWL H/P/D(F/S/D)=  2/100/11

WILM HARBR 41108 2100               54                N/A
WVE H/P(F/S)=  3/ 8 WND WVE H/P(F/S)=  3/ 8

27WRITEBCH 41037 NOT AVBL
FRYING PAN 41013 2100            44 65  320/ 14/ 19 1009.8R
WVE H/P(F/S)=  5/ 8 WND WVE H/P(F/S)=  3/ 5 SWL H/P/D(F/S/D)=  3/190/ 8

SUNST NRSH 41024 2000            47     350/ 16/ 17   N/A
CAPRS NRSH 41029 2000            48     330/ 14/ 17   N/A
EDISTO     41004 2100            50 68  290/ 19/ 25 1009.9R
WVE H/P(F/S)=  4/ 4 WND WVE H/P(F/S)=  3/ 4 SWL H/P/D(F/S/D)=  2/ 7



..........OFFSHORE BUOYS BEYOND 100 NM OFFSHORE...........
.....IN A TRIANGLE---HAT TO BERMUDA TO BAHAMAS TO HAT.....


STATION/POSITION TIME  SKY/WX   TEMP    WIND        PRES    VSBY
                                AIR SEA DIR/SP/G
                 (UTC)          (F)     (DEG/KT/KT) (MB)    (MI)
150E HAT   41001 NOT AVBL
W BERMUDA  41048 2046            63 71  260/ 25/ 35 1002.1R
WVE H/P(F/S)= 16/11 WND WVE H/P(F/S)= 10/ 7 SWL H/P/D(F/S/D)= 13/260/11

ATLANTIC S 41049 2001            75 75  220/ 19/ 23 1012.2R
WVE H/P(F/S)= 10/ 8 WND WVE H/P(F/S)= 10/ 8

E BAHAMAS  41046 2015            78 79  290/ 17/ 19 1012.4R
WVE H/P(F/S)=  8/ 9 WND WVE H/P(F/S)=  5/ 7 SWL H/P/D(F/S/D)=  5/320/ 9

NE BAHAMAS 41047 2005            72 77  260/ 21/ 27 1009.7
WVE H/P(F/S)= 15/11 WND WVE H/P(F/S)= 10/ 4 SWL H/P/D(F/S/D)= 11/280/11

120E CANVRL41010 2100            62 76  290/ 27/ 33 1011.2R
WVE H/P(F/S)= 11/ 9 WND WVE H/P(F/S)= 11/ 9


END


USA.gov is the U.S. government's official web portal to all federal, state and local government web resources and services.